SL-16 DEB, 39902

Orbit data source: Space-Track

SL-16 DEB, 39902 is space debris in LEO originally from a launch on Fri, 26 Mar 1993 UTC launched from the Tyuratam Missile And Space Complex (TTMTR). Debris objects in space refer to the collection of defunct objects orbiting the Earth. Examples of debris include non-operational satellites, rocket bodies, and fragments generated from explosions, collisions, or faulty payload assembly.

Loading next visibility...
Identifier
39902, 1993-016CC
Orbit
LEO
Country
Flag of CISCIS
Related business
Manufacturer
Unknown
Mission
Spacecraft
Bus & Motor
Unknown
Mass
Unknown
Launch date (UTC)
1993-03-26 (33 years ago)
Launch vehicle
Unknown
Launch site
Tyuratam Missile And Space Complex (TTMTR)
Object type
Payload
Rocket body
Debris
Shape & HBR
Unknown shape, 0.1 m
Radar Cross Section
Small (<0.1 m²)

Expand to show TLE details & history
Last TLE update: 3 days ago

TLE from 3 days ago
0 SL-16 DEB
1 39902U 93016CC  26032.73170298  .00000114  00000-0  14598-3 0  9998
2 39902  71.0032 176.9465 0190518 349.9040  70.0899 13.74538016584771
Epoch: 2026-02-01T17:33Z
TLE epoch observation values (Epoch: 2026-02-01T17:33:39.137Z)
Latitude
56.76198°
Longitude
173.10223°
Altitude
946.895 km
Speed
7.407 km/s
True Right ascension
13h 53m 48s
True Declination
56° 36' 29"
Sunlit
Object was in daylight at epoch
Visualization orbit readout
Latitude
Unknown
Longitude
Unknown
Altitude
Unknown
Speed
Unknown
Apparent Right ascension
Unknown
Apparent Declination
Unknown
Sunlit
N/A
Visualization observer readout
Local Sidereal Time
17:16:00
Azimuth
Unknown
Elevation
Unknown
Doppler factor
Unknown
Orbital elements
Apogee altitude
1,121.497 km
Perigee altitude
841.077 km
Semi-major axis
7,359.424 km
Eccentricity
0.01905
Inclination
71.0032°
RAAN
176.9465°
Arg. of periapsis
349.904°
True anomaly
72.15891°
Mean anomaly
70.0899°
Eccentric anomaly
71.12278°
Mean motion
3.43777 °/min
Orbital period
104.72 mins
BSTAR
0.00014598
Loading maneuver chart data...
Computing Atmospheric mass density...
Loading historical data...
Loading historical data...
Loading historical data...
Loading historical data...
Loading historical data...
Loading historical data...
Loading historical data...

Documentation

Showing up to 5 results
|